McGregor, MN

6:16 PM CDT on April 25, 2018 (GMT -0500)
McGregor

Weather History for KHZX - May, 2014

Change the Weather History Date:

Sunday, May 11, 2014

  Actual Average (KAIT) Record (KAIT)
Temperature  
Mean Temperature 58 °F -  
Max Temperature 71 °F 64 °F 85 °F (1977)
Min Temperature 46 °F 40 °F 23 °F (1963)
Degree Days  
Heating Degree Days 6    
Growing Degree Days 8 (Base 50)    
Moisture  
Dew Point 47 °F    
Average Humidity 71    
Maximum Humidity 100    
Minimum Humidity 38    
Precipitation  
Precipitation 0.02 in - - ()
Sea Level Pressure  
Sea Level Pressure 29.87 in    
Wind  
Wind Speed 5 mph (ESE)    
Max Wind Speed 15 mph    
Max Gust Speed 20 mph    
Visibility 10 miles    
Events      
Averages and records for this station are not official NWS values.
T = Trace of Precipitation, MM = Missing Value Source: NWS Daily Summary

Daily Weather History Graph

Daily Weather History Graph

Search for Another Location

Airport or City:

Astronomy

May. 11, 2014 Rise Set
Actual Time 5:44 AM CDT 8:35 PM CDT
Civil Twilight 5:09 AM CDT 9:11 PM CDT
Nautical Twilight 4:24 AM CDT 9:56 PM CDT
Astronomical Twilight 3:31 AM CDT 10:49 PM CDT
Moon 5:21 PM CDT (5/11) 4:02 AM CDT (5/11)
Length of Visible Light 16h 02m
Length of Day
14h 51m
Waxing Gibbous, 89% of the Moon is Illuminated
May 11
Waxing Gibbous
May 14
Full
May 21
Last Quarter
May 28
New
Jun 5
First Quarter

Hourly Weather History & Observations

Time (CDT) Temp. Windchill Dew Point Humidity Pressure Visibility Wind Dir Wind Speed Gust Speed Precip Events Conditions
12:08 AM 53.6 °F - 51.8 °F 94% 29.85 in 10.0 mi Calm Calm - N/A   Overcast
12:28 AM 53.6 °F - 51.8 °F 94% 29.85 in 10.0 mi SE 3.5 mph - N/A   Overcast
12:49 AM 51.8 °F - 50.0 °F 94% 29.85 in 10.0 mi SE 3.5 mph - N/A   Mostly Cloudy
1:08 AM 51.8 °F - 50.0 °F 94% 29.85 in 10.0 mi SE 4.6 mph - N/A   Mostly Cloudy
1:29 AM 51.8 °F - 50.0 °F 94% 29.85 in 10.0 mi SE 4.6 mph - N/A   Scattered Clouds
1:48 AM 50.0 °F - 48.2 °F 94% 29.85 in 10.0 mi ESE 4.6 mph - N/A   Clear
2:08 AM 50.0 °F - 48.2 °F 94% 29.84 in 10.0 mi ESE 3.5 mph - N/A   Scattered Clouds
2:29 AM 50.0 °F - 46.4 °F 87% 29.84 in 10.0 mi ESE 5.8 mph - N/A   Scattered Clouds
2:48 AM 50.0 °F - 48.2 °F 94% 29.84 in 10.0 mi ESE 4.6 mph - N/A   Scattered Clouds
3:08 AM 50.0 °F - 48.2 °F 94% 29.84 in 10.0 mi ESE 4.6 mph - N/A   Scattered Clouds
3:28 AM 50.0 °F - 48.2 °F 94% 29.84 in 10.0 mi SE 6.9 mph - N/A   Clear
3:48 AM 50.0 °F - 48.2 °F 94% 29.84 in 10.0 mi ESE 3.5 mph - N/A   Clear
4:09 AM 50.0 °F - 48.2 °F 94% 29.84 in 10.0 mi Calm Calm - N/A   Clear
4:28 AM 50.0 °F - 48.2 °F 94% 29.84 in 10.0 mi East 4.6 mph - N/A   Clear
4:48 AM 50.0 °F - 48.2 °F 94% 29.84 in 10.0 mi East 4.6 mph - N/A   Clear
5:08 AM 50.0 °F - 48.2 °F 94% 29.83 in 10.0 mi Calm Calm - N/A   Clear
5:28 AM 50.0 °F - 46.4 °F 87% 29.84 in 10.0 mi East 4.6 mph - N/A   Clear
5:49 AM 48.2 °F - 46.4 °F 93% 29.84 in 10.0 mi East 5.8 mph - N/A   Clear
6:08 AM 48.2 °F - 46.4 °F 93% 29.85 in 10.0 mi East 3.5 mph - N/A   Clear
6:28 AM 46.4 °F - 46.4 °F 100% 29.87 in 10.0 mi Calm Calm - N/A   Clear
6:48 AM 46.4 °F 45.2 °F 46.4 °F 100% 29.87 in 10.0 mi East 3.5 mph - N/A   Clear
7:08 AM 48.2 °F - 46.4 °F 93% 29.88 in 10.0 mi East 3.5 mph - N/A   Clear
7:29 AM 48.2 °F - 46.4 °F 93% 29.88 in 10.0 mi ENE 3.5 mph - N/A   Clear
7:48 AM 50.0 °F - 46.4 °F 87% 29.88 in 10.0 mi East 4.6 mph - N/A   Clear
8:08 AM 51.8 °F - 46.4 °F 82% 29.87 in 10.0 mi East 3.5 mph - N/A   Clear
8:29 AM 53.6 °F - 46.4 °F 77% 29.87 in 10.0 mi East 4.6 mph - N/A   Clear
8:48 AM 55.4 °F - 48.2 °F 77% 29.87 in 10.0 mi East 5.8 mph - N/A   Clear
9:08 AM 57.2 °F - 50.0 °F 77% 29.87 in 10.0 mi East 6.9 mph - N/A   Clear
9:28 AM 59.0 °F - 50.0 °F 72% 29.89 in 10.0 mi SE 9.2 mph - N/A   Clear
9:48 AM 60.8 °F - 50.0 °F 68% 29.89 in 10.0 mi SE 8.1 mph - N/A   Clear
10:09 AM 62.6 °F - 51.8 °F 68% 29.89 in 10.0 mi SSE 8.1 mph - N/A   Clear
10:28 AM 62.6 °F - 51.8 °F 68% 29.89 in 10.0 mi SE 8.1 mph - N/A   Clear
10:48 AM 62.6 °F - 51.8 °F 68% 29.89 in 10.0 mi East 4.6 mph - N/A   Clear
11:08 AM 64.4 °F - 51.8 °F 64% 29.89 in 10.0 mi Calm Calm - N/A   Clear
11:28 AM 66.2 °F - 51.8 °F 60% 29.89 in 10.0 mi SSE 3.5 mph - N/A   Clear
11:49 AM 68.0 °F - 51.8 °F 56% 29.89 in 10.0 mi ESE 6.9 mph - N/A   Clear
12:08 PM 68.0 °F - 51.8 °F 56% 29.89 in 10.0 mi SSE 5.8 mph - N/A   Clear
12:28 PM 69.8 °F - 50.0 °F 49% 29.88 in 10.0 mi SSE 5.8 mph - N/A   Clear
12:48 PM 69.8 °F - 51.8 °F 53% 29.88 in 10.0 mi SSE 9.2 mph - N/A   Scattered Clouds
1:08 PM 69.8 °F - 50.0 °F 49% 29.87 in 10.0 mi SSW 6.9 mph - N/A   Mostly Cloudy
1:29 PM 69.8 °F - 50.0 °F 49% 29.87 in 10.0 mi WSW 6.9 mph - N/A   Overcast
1:48 PM 69.8 °F - 50.0 °F 49% 29.87 in 10.0 mi South 5.8 mph - N/A   Overcast
2:08 PM 69.8 °F - 50.0 °F 49% 29.87 in 10.0 mi WSW 3.5 mph - N/A   Overcast
2:28 PM 71.6 °F - 50.0 °F 46% 29.87 in 10.0 mi SSW 6.9 mph - N/A   Mostly Cloudy
2:48 PM 71.6 °F - 46.4 °F 41% 29.87 in 10.0 mi South 6.9 mph - N/A   Scattered Clouds
3:08 PM 71.6 °F - 44.6 °F 38% 29.87 in 10.0 mi SSW 9.2 mph - N/A   Mostly Cloudy
3:28 PM 69.8 °F - 44.6 °F 40% 29.87 in 10.0 mi SW 8.1 mph - N/A   Overcast
3:49 PM 69.8 °F - 44.6 °F 40% 29.87 in 10.0 mi South 5.8 mph - N/A   Overcast
4:08 PM 69.8 °F - 48.2 °F 46% 29.87 in 10.0 mi ESE 11.5 mph - N/A   Mostly Cloudy
4:28 PM 68.0 °F - 48.2 °F 49% 29.88 in 10.0 mi ENE 6.9 mph - N/A   Mostly Cloudy
4:48 PM 68.0 °F - 48.2 °F 49% 29.88 in 10.0 mi East 10.4 mph - N/A   Mostly Cloudy
5:08 PM 64.4 °F - 46.4 °F 52% 29.88 in 10.0 mi ESE 8.1 mph - N/A   Mostly Cloudy
5:29 PM 64.4 °F - 46.4 °F 52% 29.88 in 10.0 mi East 9.2 mph - N/A   Overcast
5:48 PM 62.6 °F - 44.6 °F 52% 29.88 in 10.0 mi East 11.5 mph - N/A   Mostly Cloudy
6:08 PM 60.8 °F - 44.6 °F 55% 29.88 in 10.0 mi ENE 9.2 mph - N/A   Overcast
6:28 PM 59.0 °F - 42.8 °F 55% 29.87 in 10.0 mi East 9.2 mph - N/A   Scattered Clouds
6:48 PM 59.0 °F - 42.8 °F 55% 29.86 in 10.0 mi East 11.5 mph - N/A   Scattered Clouds
7:09 PM 57.2 °F - 42.8 °F 59% 29.87 in 10.0 mi East 4.6 mph - N/A   Overcast
7:28 PM 57.2 °F - 42.8 °F 59% 29.87 in 10.0 mi East 8.1 mph - N/A   Overcast
7:48 PM 55.4 °F - 42.8 °F 63% 29.87 in 10.0 mi East 10.4 mph - N/A   Mostly Cloudy
8:09 PM 53.6 °F - 42.8 °F 67% 29.87 in 10.0 mi ENE 11.5 mph - N/A   Overcast
8:28 PM 53.6 °F - 42.8 °F 67% 29.87 in 10.0 mi East 10.4 mph 18.4 mph N/A   Overcast
8:48 PM 53.6 °F - 42.8 °F 67% 29.87 in 10.0 mi East 13.8 mph 19.6 mph N/A   Overcast
9:08 PM 53.6 °F - 42.8 °F 67% 29.87 in 10.0 mi East 15.0 mph - N/A   Overcast
9:28 PM 51.8 °F - 41.0 °F 67% 29.87 in 10.0 mi ENE 12.7 mph 17.3 mph N/A   Overcast
9:48 PM 51.8 °F - 42.8 °F 71% 29.89 in 10.0 mi East 9.2 mph 16.1 mph N/A   Overcast
10:09 PM 51.8 °F - 42.8 °F 71% 29.89 in 10.0 mi ENE 8.1 mph - N/A   Overcast
10:28 PM 51.8 °F - 42.8 °F 71% 29.91 in 10.0 mi ENE 4.6 mph 16.1 mph N/A   Overcast
10:48 PM 51.8 °F - 42.8 °F 71% 29.92 in 10.0 mi East 4.6 mph - N/A   Overcast
11:09 PM 51.8 °F - 44.6 °F 76% 29.91 in 10.0 mi NE 4.6 mph - N/A   Overcast
11:28 PM 50.0 °F - 44.6 °F 82% 29.90 in 10.0 mi NNE 5.8 mph - 0.01 in   Overcast
11:48 PM 50.0 °F - 44.6 °F 82% 29.89 in 10.0 mi NNE 6.9 mph - 0.02 in   Overcast